Time,TemperatureF,DewpointF,PressureIn,WindDirection,WindDirectionDegrees,WindSpeedMPH,WindSpeedGustMPH,Humidity,HourlyPrecipIn,Conditions,Clouds,dailyrainin,SolarRadiationWatts/m^2,SoftwareType,DateUTC
2013-08-29 00:08:00,72.0,66.0,-100.00,SE,128,2.0,6.0,82,0.00,,,0.00,0.000000,,2013-08-29 04:08:00,
2013-08-29 00:11:00,71.0,67.0,-100.00,SE,135,1.0,5.0,87,0.04,,,0.04,0.000000,,2013-08-29 04:11:00,
2013-08-29 00:46:00,71.0,67.0,-100.00,SE,135,1.0,5.0,87,0.04,,,0.04,0.000000,,2013-08-29 04:46:00,
2013-08-29 00:54:00,71.0,67.0,-100.00,SE,135,1.0,5.0,87,0.04,,,0.04,0.000000,,2013-08-29 04:54:00,
2013-08-29 01:05:00,71.0,67.0,-100.00,SE,135,1.0,5.0,87,0.04,,,0.04,0.000000,,2013-08-29 05:05:00,
2013-08-29 01:11:00,70.0,69.0,-100.00,ENE,78,2.0,6.0,96,0.00,,,0.04,0.000000,,2013-08-29 05:11:00,
2013-08-29 01:42:00,70.0,69.0,-100.00,ENE,78,2.0,6.0,96,0.00,,,0.04,0.000000,,2013-08-29 05:42:00,
2013-08-29 01:52:00,70.0,69.0,-100.00,ENE,78,2.0,6.0,96,0.00,,,0.04,0.000000,,2013-08-29 05:52:00,
2013-08-29 02:02:00,70.0,69.0,-100.00,ENE,78,2.0,6.0,96,0.00,,,0.04,0.000000,,2013-08-29 06:02:00,
2013-08-29 02:11:00,69.0,68.0,-100.00,SSE,154,1.0,7.0,97,0.00,,,0.04,0.000000,,2013-08-29 06:11:00,
2013-08-29 02:43:00,69.0,68.0,-100.00,SSE,154,1.0,7.0,97,0.00,,,0.04,0.000000,,2013-08-29 06:43:00,
2013-08-29 02:52:00,69.0,68.0,-100.00,SSE,154,1.0,7.0,97,0.00,,,0.04,0.000000,,2013-08-29 06:52:00,
2013-08-29 03:01:00,69.0,68.0,-100.00,SSE,154,1.0,7.0,97,0.00,,,0.04,0.000000,,2013-08-29 07:01:00,
2013-08-29 03:11:00,69.0,68.0,-100.00,SE,127,1.0,4.0,97,0.00,,,0.04,0.000000,,2013-08-29 07:11:00,
2013-08-29 03:42:00,69.0,68.0,-100.00,SE,127,1.0,4.0,97,0.00,,,0.04,0.000000,,2013-08-29 07:42:00,
2013-08-29 03:53:00,69.0,68.0,-100.00,SE,127,1.0,4.0,97,0.00,,,0.04,0.000000,,2013-08-29 07:53:00,
2013-08-29 04:02:00,69.0,68.0,-100.00,SE,127,1.0,4.0,97,0.00,,,0.04,0.000000,,2013-08-29 08:02:00,
2013-08-29 04:11:00,70.0,68.0,-100.00,NW,317,1.0,6.0,94,0.00,,,0.04,0.000000,,2013-08-29 08:11:00,
2013-08-29 04:42:00,70.0,68.0,-100.00,NW,317,1.0,6.0,94,0.00,,,0.04,0.000000,,2013-08-29 08:42:00,
2013-08-29 04:52:00,70.0,68.0,-100.00,NW,317,1.0,6.0,94,0.00,,,0.04,0.000000,,2013-08-29 08:52:00,
2013-08-29 05:01:00,70.0,68.0,-100.00,NW,317,1.0,6.0,94,0.00,,,0.04,0.000000,,2013-08-29 09:01:00,
2013-08-29 05:11:00,70.0,68.0,-100.00,SE,128,1.0,2.0,93,0.01,,,0.05,0.000000,,2013-08-29 09:11:00,
2013-08-29 05:43:00,70.0,68.0,-100.00,SE,128,1.0,2.0,93,0.01,,,0.05,0.000000,,2013-08-29 09:43:00,
2013-08-29 05:55:00,70.0,68.0,-100.00,SE,128,1.0,2.0,93,0.01,,,0.05,0.000000,,2013-08-29 09:55:00,
2013-08-29 06:06:00,70.0,68.0,-100.00,SE,128,1.0,2.0,93,0.01,,,0.05,0.000000,,2013-08-29 10:06:00,
2013-08-29 06:11:00,69.0,68.0,-100.00,SE,124,0.0,2.0,96,0.00,,,0.05,0.000000,,2013-08-29 10:11:00,
2013-08-29 06:43:00,69.0,68.0,-100.00,SE,124,0.0,2.0,96,0.00,,,0.05,0.000000,,2013-08-29 10:43:00,
2013-08-29 06:53:00,69.0,68.0,-100.00,SE,124,0.0,2.0,96,0.00,,,0.05,0.000000,,2013-08-29 10:53:00,
2013-08-29 07:03:00,69.0,68.0,-100.00,SE,124,0.0,2.0,96,0.00,,,0.05,0.000000,,2013-08-29 11:03:00,
2013-08-29 07:11:00,69.0,68.0,-100.00,South,187,0.0,2.0,95,0.00,,,0.05,0.000000,,2013-08-29 11:11:00,
2013-08-29 07:42:00,69.0,68.0,-100.00,South,187,0.0,2.0,95,0.00,,,0.05,0.000000,,2013-08-29 11:42:00,
2013-08-29 07:52:00,69.0,68.0,-100.00,South,187,0.0,2.0,95,0.00,,,0.05,0.000000,,2013-08-29 11:52:00,
2013-08-29 08:02:00,69.0,68.0,-100.00,South,187,0.0,2.0,95,0.00,,,0.05,0.000000,,2013-08-29 12:02:00,
2013-08-29 08:11:00,71.0,69.0,-100.00,ESE,109,1.0,2.0,95,0.00,,,0.05,36.000000,,2013-08-29 12:11:00,
2013-08-29 08:42:00,71.0,69.0,-100.00,ESE,109,1.0,2.0,95,0.00,,,0.05,36.000000,,2013-08-29 12:42:00,
2013-08-29 08:52:00,71.0,69.0,-100.00,ESE,109,1.0,2.0,95,0.00,,,0.05,36.000000,,2013-08-29 12:52:00,
2013-08-29 09:02:00,71.0,69.0,-100.00,ESE,109,1.0,2.0,95,0.00,,,0.05,36.000000,,2013-08-29 13:02:00,
2013-08-29 09:11:00,73.0,70.0,-100.00,SE,126,1.0,4.0,90,0.00,,,0.05,123.000000,,2013-08-29 13:11:00,
2013-08-29 09:42:00,73.0,70.0,-100.00,SE,126,1.0,4.0,90,0.00,,,0.05,123.000000,,2013-08-29 13:42:00,
2013-08-29 09:52:00,73.0,70.0,-100.00,SE,126,1.0,4.0,90,0.00,,,0.05,123.000000,,2013-08-29 13:52:00,
2013-08-29 10:02:00,73.0,70.0,-100.00,SE,126,1.0,4.0,90,0.00,,,0.05,123.000000,,2013-08-29 14:02:00,
2013-08-29 10:11:00,74.0,69.0,-100.00,East,81,2.0,4.0,85,0.00,,,0.05,158.000000,,2013-08-29 14:11:00,
2013-08-29 10:42:00,74.0,69.0,-100.00,East,81,2.0,4.0,85,0.00,,,0.05,158.000000,,2013-08-29 14:42:00,
2013-08-29 10:52:00,74.0,69.0,-100.00,East,81,2.0,4.0,85,0.00,,,0.05,158.000000,,2013-08-29 14:52:00,
2013-08-29 11:02:00,74.0,69.0,-100.00,East,81,2.0,4.0,85,0.00,,,0.05,158.000000,,2013-08-29 15:02:00,
2013-08-29 11:11:00,79.0,73.0,-100.00,SE,136,2.0,5.0,81,0.00,,,0.05,405.000000,,2013-08-29 15:11:00,
2013-08-29 11:43:00,79.0,73.0,-100.00,SE,136,2.0,5.0,81,0.00,,,0.05,405.000000,,2013-08-29 15:43:00,
2013-08-29 11:53:00,79.0,73.0,-100.00,SE,136,2.0,5.0,81,0.00,,,0.05,405.000000,,2013-08-29 15:53:00,
2013-08-29 12:05:00,79.0,73.0,-100.00,SE,136,2.0,5.0,81,0.00,,,0.05,405.000000,,2013-08-29 16:05:00,
2013-08-29 12:11:00,85.0,74.0,-100.00,ESE,114,3.0,6.0,69,0.00,,,0.05,808.000000,,2013-08-29 16:11:00,
2013-08-29 12:43:00,85.0,74.0,-100.00,ESE,114,3.0,6.0,69,0.00,,,0.05,808.000000,,2013-08-29 16:43:00,
2013-08-29 12:54:00,85.0,74.0,-100.00,ESE,114,3.0,6.0,69,0.00,,,0.05,808.000000,,2013-08-29 16:54:00,
2013-08-29 13:04:00,85.0,74.0,-100.00,ESE,114,3.0,6.0,69,0.00,,,0.05,808.000000,,2013-08-29 17:04:00,
2013-08-29 13:11:00,85.0,70.0,-100.00,ESE,118,3.0,6.0,60,0.00,,,0.05,943.000000,,2013-08-29 17:11:00,
2013-08-29 13:44:00,85.0,70.0,-100.00,ESE,118,3.0,6.0,60,0.00,,,0.05,943.000000,,2013-08-29 17:44:00,
2013-08-29 13:53:00,85.0,70.0,-100.00,ESE,118,3.0,6.0,60,0.00,,,0.05,943.000000,,2013-08-29 17:53:00,
2013-08-29 14:02:00,85.0,70.0,-100.00,ESE,118,3.0,6.0,60,0.00,,,0.05,943.000000,,2013-08-29 18:02:00,
2013-08-29 14:11:00,85.0,65.0,-100.00,SE,126,3.0,6.0,52,0.00,,,0.05,964.000000,,2013-08-29 18:11:00,
2013-08-29 14:42:00,85.0,65.0,-100.00,SE,126,3.0,6.0,52,0.00,,,0.05,964.000000,,2013-08-29 18:42:00,
2013-08-29 14:52:00,85.0,65.0,-100.00,SE,126,3.0,6.0,52,0.00,,,0.05,964.000000,,2013-08-29 18:52:00,
2013-08-29 15:01:00,85.0,65.0,-100.00,SE,126,3.0,6.0,52,0.00,,,0.05,964.000000,,2013-08-29 19:01:00,
2013-08-29 15:11:00,85.0,66.0,-100.00,SE,127,4.0,7.0,53,0.00,,,0.05,961.000000,,2013-08-29 19:11:00,
2013-08-29 15:42:00,85.0,66.0,-100.00,SE,127,4.0,7.0,53,0.00,,,0.05,961.000000,,2013-08-29 19:42:00,
2013-08-29 15:53:00,85.0,66.0,-100.00,SE,127,4.0,7.0,53,0.00,,,0.05,961.000000,,2013-08-29 19:53:00,
2013-08-29 16:02:00,85.0,66.0,-100.00,SE,127,4.0,7.0,53,0.00,,,0.05,961.000000,,2013-08-29 20:02:00,
2013-08-29 16:11:00,84.0,67.0,-100.00,SE,137,3.0,7.0,57,0.00,,,0.05,795.000000,,2013-08-29 20:11:00,
2013-08-29 16:42:00,84.0,67.0,-100.00,SE,137,3.0,7.0,57,0.00,,,0.05,795.000000,,2013-08-29 20:42:00,
2013-08-29 16:52:00,84.0,67.0,-100.00,SE,137,3.0,7.0,57,0.00,,,0.05,795.000000,,2013-08-29 20:52:00,
2013-08-29 17:02:00,84.0,67.0,-100.00,SE,137,3.0,7.0,57,0.00,,,0.05,795.000000,,2013-08-29 21:02:00,
2013-08-29 17:11:00,82.0,66.0,-100.00,ESE,120,4.0,9.0,58,0.00,,,0.05,668.000000,,2013-08-29 21:11:00,
2013-08-29 17:44:00,82.0,66.0,-100.00,ESE,120,4.0,9.0,58,0.00,,,0.05,668.000000,,2013-08-29 21:44:00,
2013-08-29 17:54:00,82.0,66.0,-100.00,ESE,120,4.0,9.0,58,0.00,,,0.05,668.000000,,2013-08-29 21:54:00,
2013-08-29 18:04:00,82.0,66.0,-100.00,ESE,120,4.0,9.0,58,0.00,,,0.05,668.000000,,2013-08-29 22:04:00,
2013-08-29 18:11:00,77.0,64.0,-100.00,ESE,123,3.0,7.0,64,0.00,,,0.05,170.000000,,2013-08-29 22:11:00,
2013-08-29 18:43:00,77.0,64.0,-100.00,ESE,123,3.0,7.0,64,0.00,,,0.05,170.000000,,2013-08-29 22:43:00,
2013-08-29 18:53:00,77.0,64.0,-100.00,ESE,123,3.0,7.0,64,0.00,,,0.05,170.000000,,2013-08-29 22:53:00,
2013-08-29 19:03:00,77.0,64.0,-100.00,ESE,123,3.0,7.0,64,0.00,,,0.05,170.000000,,2013-08-29 23:03:00,
2013-08-29 19:11:00,75.0,64.0,-100.00,SE,130,3.0,5.0,69,0.00,,,0.05,55.000000,,2013-08-29 23:11:00,
2013-08-29 19:43:00,75.0,64.0,-100.00,SE,130,3.0,5.0,69,0.00,,,0.05,55.000000,,2013-08-29 23:43:00,
2013-08-29 19:53:00,75.0,64.0,-100.00,SE,130,3.0,5.0,69,0.00,,,0.05,55.000000,,2013-08-29 23:53:00,
2013-08-29 20:02:00,75.0,64.0,-100.00,SE,130,3.0,5.0,69,0.00,,,0.05,55.000000,,2013-08-30 00:02:00,
2013-08-29 20:11:00,72.0,64.0,-100.00,East,91,1.0,4.0,76,0.00,,,0.05,16.000000,,2013-08-30 00:11:00,
2013-08-29 20:42:00,72.0,64.0,-100.00,East,91,1.0,4.0,76,0.00,,,0.05,16.000000,,2013-08-30 00:42:00,
2013-08-29 20:52:00,72.0,64.0,-100.00,East,91,1.0,4.0,76,0.00,,,0.05,16.000000,,2013-08-30 00:52:00,
2013-08-29 21:02:00,72.0,64.0,-100.00,East,91,1.0,4.0,76,0.00,,,0.05,16.000000,,2013-08-30 01:02:00,
2013-08-29 21:11:00,70.0,66.0,-100.00,East,79,1.0,4.0,87,0.00,,,0.05,0.000000,,2013-08-30 01:11:00,
2013-08-29 21:42:00,70.0,66.0,-100.00,East,79,1.0,4.0,87,0.00,,,0.05,0.000000,,2013-08-30 01:42:00,
2013-08-29 21:52:00,70.0,66.0,-100.00,East,79,1.0,4.0,87,0.00,,,0.05,0.000000,,2013-08-30 01:52:00,
2013-08-29 22:02:00,70.0,66.0,-100.00,East,79,1.0,4.0,87,0.00,,,0.05,0.000000,,2013-08-30 02:02:00,
2013-08-29 22:11:00,67.0,65.0,-100.00,WNW,298,1.0,2.0,94,0.00,,,0.05,0.000000,,2013-08-30 02:11:00,
2013-08-29 22:42:00,67.0,65.0,-100.00,WNW,298,1.0,2.0,94,0.00,,,0.05,0.000000,,2013-08-30 02:42:00,
2013-08-29 22:52:00,67.0,65.0,-100.00,WNW,298,1.0,2.0,94,0.00,,,0.05,0.000000,,2013-08-30 02:52:00,
2013-08-29 23:02:00,67.0,65.0,-100.00,WNW,298,1.0,2.0,94,0.00,,,0.05,0.000000,,2013-08-30 03:02:00,
2013-08-29 23:11:00,66.0,65.0,-100.00,WNW,300,1.0,3.0,97,0.00,,,0.05,0.000000,,2013-08-30 03:11:00,
2013-08-29 23:43:00,66.0,65.0,-100.00,WNW,300,1.0,3.0,97,0.00,,,0.05,0.000000,,2013-08-30 03:43:00,
2013-08-29 23:55:00,66.0,65.0,-100.00,WNW,300,1.0,3.0,97,0.00,,,0.05,0.000000,,2013-08-30 03:55:00,